Regional Weather Roundup
Issued by NWS Sterling, VA

Home | Current Version | Previous Version | Text Only | Print | Product List | Glossary On
Versions: 1 2 3 4 5 6 7 8 9 10 11 12 13 14 15 16 17 18 19 20 21 22 23 24 25 26 27 28 29 30 31 32 33 34 35 36 37 38 39 40 41 42 43 44 45 46 47 48 49 50
029
ASUS41 KLWX 260110
RWRLWX

REGIONAL WEATHER ROUNDUP
NATIONAL WEATHER SERVICE BALTIMORE MD/WASHINGTON DC
900 PM EDT MON JUL 25 2016

Note: "FAIR" indicates few or no clouds below 12,000 feet
with no significant weather and/or obstructions to visibility.
 TC=TEMPERATURE CELSIUS

 * =Non NWS site. Station does not report precipitation (e.g. rain,
    snow, etc.), thunder, or fog.

DCZ001-MDZ009-015-VAZ040>042-051-053>054-260200-
WASHINGTON METRO

CITY           SKY/WX    TMP DP  RH WIND       PRES   REMARKS
WASHINGTON NAT MOCLDY    89  77  67 S7        29.88R HX 101
DULLES         MOCLDY    85  73  67 CALM      29.89R HX  91
ANDREWS AFB    PTCLDY    87  73  63 SW6       29.88R HX  94
FT BELVOIR     FAIR      86  77  74 E2        29.88R HX  96
COLLEGE PARK*  MOCLDY    82  73  74 CALM      29.88R
LEESBURG*      FAIR      81  77  89 W3        29.91R
MANASSAS*      CLEAR     90  75  62 CALM      29.88R HX 100
GAITHERSBURG*  CLOUDY    81  70  69 CALM      29.94R

$$

MDZ006>007-011-014-260200-
BALTIMORE METRO

CITY           SKY/WX    TMP DP  RH WIND       PRES   REMARKS
BWI AIRPORT    CLOUDY    88  70  55 W7        29.88R HX  93
MD SCIENCE CTR   N/A     92  71  50 MISG      29.90R HX  98
MARTIN STATE   MOCLDY    84  73  70 N8G21     29.92R HX  91
ANNAPOLIS      CLOUDY    89  72  56 W5        29.87R HX  96
FORT MEADE*    CLOUDY    79  73  83 CALM      29.90R

$$

MDZ012-015-019>023-260200-
MARYLAND EASTERN SHORE

CITY           SKY/WX    TMP DP  RH WIND       PRES   REMARKS
OCEAN CITY     CLOUDY    85  77  77 SW8       29.91R HX  95
SALISBURY      MOCLDY    84  76  76 SW7       29.90R HX  93
BAY BRIDGE AP* CLOUDY    90  73  58 SW8       29.87R HX  98
CAMBRIDGE*     MOCLDY    84  73  70 S3        29.89R HX  91

$$

MDZ017>025-260200-
SOUTHERN MARYLAND

CITY           SKY/WX    TMP DP  RH WIND       PRES   REMARKS
PATUXENT RIVER MOCLDY    88  73  61 S6        29.89R HX  95
ST INIGOES     CLOUDY    89  78  70 S5        29.88R HX 103
LEONARDTOWN*   CLOUDY    88  73  62 CALM      29.91R HX  96

$$

MDZ003>005-260200-
NORTH CENTRAL MARYLAND

CITY           SKY/WX    TMP DP  RH WIND       PRES   REMARKS
FREDERICK*     CLOUDY    81  75  83 NE6       29.93R
HAGERSTOWN APT CLOUDY    86  72  62 CALM      29.91R HX  92

$$

MDZ501>502-260200-
WESTERN MARYLAND

CITY           SKY/WX    TMP DP  RH WIND       PRES   REMARKS
OAKLAND*       CLOUDY    66  64  94 SW6       30.09R
CUMBERLAND*    CLOUDY    82  64  54 W3        29.99R

$$

VAZ025>031-260200-
SHENANDOAH VALLEY

CITY           SKY/WX    TMP DP  RH WIND       PRES   REMARKS
WINCHESTER*    FAIR      81  72  74 CALM      29.93R
FRONT ROYAL*   FAIR      81  72  74 CALM      29.92R
LURAY*         FAIR      79  79 100 CALM      29.95R
NEW MARKET*    FAIR     N/A N/A N/A CALM      29.95S
STAUNTON*      FAIR      83  73  72 W3        29.99R
WAYNESBORO*    FAIR      84  70  63 SW6       30.00R

$$

WVZ021-048>050-054>055-260200-
EASTERN WEST VIRGINIA PANHANDLE

CITY           SKY/WX    TMP DP  RH WIND       PRES   REMARKS
MARTINSBURG    FAIR      85  71  63 S3        29.90R HX  90
PETERSBURG*    FAIR      83  70  65 CALM      29.97S

$$

VAZ036>039-050-260200-
CENTRAL FOOTHILLS

CITY           SKY/WX    TMP DP  RH WIND       PRES   REMARKS
CHARLOTTESVILL FAIR      89  73  59 SW6       29.92R HX  97
CULPEPER*      FAIR      85  80  86 CALM      29.91R HX  99
ORANGE*          N/A     86  75  70 CALM      29.93R HX  95
GORDONSVILLE*  FAIR      87  75  68 SW5       29.91R HX  96
WARRENTON*     FAIR      85  73  69 CALM      29.89S HX  91

$$

VAZ055>057-260200-
NORTH AND CENTRAL PIEDMONT

CITY           SKY/WX    TMP DP  RH WIND       PRES   REMARKS
FREDERICKSBRG*   N/A     87  77  73 SW3       29.88R HX  98
STAFFORD*      FAIR      85  75  73 CALM      29.93R HX  94

$$

NCZ024-NYZ072-PAZ021-071-VAZ022-071-260200-
OTHER REGIONAL OBSERVATIONS

CITY           SKY/WX    TMP DP  RH WIND       PRES   REMARKS
NEW YORK CITY  CLOUDY    74  72  93 CALM      29.90R
PHILADELPHIA   CLOUDY    75  72  90 S9        29.92F
PITTSBURGH     MOCLDY    83  66  56 VRB3      29.96R
ROANOKE        MOCLDY    80  75  84 N6        30.02R
RICHMOND       CLOUDY    85  75  72 S9        29.91R HX  93
RALEIGH        MOCLDY    88  73  61 SW13      29.98R HX  95

$$

ANZ530>537-260200-
MARINE OBSERVATIONS

STATION/POSITION TIME  TEMP    WIND        PRES
                       AIR SEA DIR/SP/G
                 (UTC) (F)     (DEG/KT/KT) (MB)
THOMAS PT LIGHT  0100   87 84  210/  9/  9 1013.0R
BALT KEY BRIDGE  0030   91     220/  7/  9   N/A
COVE POINT       0030   90     210/  5/  6   N/A
LEWISETTA        0030   89 87  210/  7/  8   N/A
SOLOMONS ISLAND  0030   89 85  210/  6/  8   N/A
PINEY POINT      0024          210/  6/  7   N/A

$$





USA.gov is the U.S. government's official web portal to all federal, state and local government web resources and services.